[[{"header":{"parameterUnit":"m.s-1","parameterCategory":1,"la1":30.2991,"la2":30.254,"lo1":-89.0895,"lo2":-89.0444,"dy":0.0017,"dx":0.0017,"nx":28,"ny":28,"refTime":"2023-07-26T03:00:00:Z","depth":0,"parameterNumber":2,"parameterNumberName":"U-component_of_WINDS"},"data":[0,0,0,0,0,0,0,0,0,0,0,0,0,0,0,0,0,0,0,0,0,0,0,0,0,0,0,0,0,0,0,0,0,0,0,0,0,0,0,0,0,0,0,0,0,0,0,0,0,0,0,0,0,0,0,0,0,0,0.3868,0.3868,0,0.3891,0.3891,0.3891,0.3884,0.3884,0.3883,0.3883,0.3907,0.3908,0.3909,0,0,0,0,0,0,0,0,0,0,0,0,0,0.3821,0.3822,0.3868,0.3868,0.3869,0.3891,0.3891,0.3891,0.3884,0.3884,0.3883,0.3883,0.3907,0.3908,0.3909,0,0,0,0,0,0,0,0,0,0,0,0,0,0.3842,0.3822,0.3868,0.3868,0.3868,0.3891,0.3891,0.3891,0.3885,0.3884,0.3883,0.3882,0.3906,0.3908,0.391,0.3934,0,0,0.3915,0.3915,0,0,0,0,0,0,0,0,0.3841,0.3844,0.3868,0.3868,0.3868,0.3884,0.3883,0.3906,0.3885,0.3878,0.3883,0.3882,0.39,0.3902,0.3908,0.3935,0.3936,0.3915,0.3916,0.3916,0.3917,0,0,0,0,0,0,0,0.384,0.3843,0.3877,0.3868,0.3868,0.3867,0.387,0.3887,0.3893,0.3879,0.3878,0.3881,0.39,0.3907,0.3909,0.3936,0.3915,0.3916,0.3917,0.3918,0.3986,0.3986,0,0,0,0,0,0,0.3838,0.3842,0.3876,0.3878,0.3853,0.3869,0.3871,0.388,0.3893,0.3894,0.3882,0.3881,0.3904,0.3907,0.3909,0.3939,0.3916,0.3918,0.3919,0.3985,0.3986,0.3987,0,0,0,0,0,0,0.3837,0.3841,0.3875,0.386,0.3864,0.387,0.388,0.388,0.3887,0.3895,0.3896,0.3887,0.3904,0.3907,0.3928,0.394,0.3919,0.392,0.3984,0.3985,0.3986,0.3999,0,0,0,0,0,0,0.3835,0.384,0.3849,0.386,0.3865,0.3893,0.388,0.3881,0.3889,0.3888,0.39,0.3901,0.3903,0.3926,0.393,0.3942,0.3921,0.3983,0.3984,0.3986,0.3997,0.4,0.4003,0,0,0,0,0,0.3834,0.3852,0.385,0.3854,0.3876,0.3894,0.3897,0.3898,0.389,0.39,0.3905,0.3901,0.3938,0.3928,0.3932,0.3945,0.3982,0.3984,0.3986,0.3996,0.4,0.4003,0,0,0,0,0,0,0.3843,0.3853,0.3851,0.3873,0.3882,0.3892,0.3904,0.3902,0.3914,0.3912,0.3914,0.3917,0.3938,0.3944,0.3932,0.397,0.3959,0.3962,0.3965,0.3969,0.3971,0.397,0.3923,0,0,0,0,0,0.3847,0.386,0.3869,0.3888,0.3893,0.3898,0.3905,0.3906,0.3916,0.392,0.3927,0.3937,0.3951,0.396,0.3974,0.3998,0.4001,0.4009,0.4012,0.4014,0.4017,0.4031,0.4035,0.3993,0.3993,0.3993,0,0,0.3856,0.3864,0.3872,0.389,0.3897,0.3911,0.3901,0.3916,0.3927,0.3922,0.3942,0.3948,0.396,0.3983,0.3993,0.3988,0.4029,0.4017,0.4018,0.4019,0.4033,0.4037,0.4041,0.3994,0.3994,0.3994,0,0,0.3881,0.3888,0.3904,0.3912,0.3923,0.3927,0.3931,0.3942,0.3945,0.3965,0.3962,0.3976,0.3999,0.4008,0.4016,0.4045,0.4042,0.4049,0.4063,0.4077,0.408,0.4083,0.4094,0.4098,0.4052,0.4052,0.4052,0,0.3891,0.3912,0.3913,0.3929,0.3937,0.3933,0.3951,0.3958,0.3974,0.398,0.3974,0.4004,0.4012,0.4037,0.4044,0.4051,0.4056,0.4048,0.408,0.4083,0.4085,0.4096,0.41,0.4052,0.4052,0.4052,0.4052,0,0.3924,0.3939,0.3951,0.3966,0.3975,0.3992,0.3996,0.4006,0.4006,0.401,0.4031,0.4041,0.4056,0.4062,0.4062,0.4088,0.4084,0.4079,0.4068,0.409,0.41,0.4104,0.4054,0.4053,0.4053,0.4053,0,0,0.3954,0.397,0.3974,0.3981,0.3994,0.4006,0.4022,0.4037,0.4046,0.4057,0.4071,0.4092,0.4088,0.4097,0.4098,0.411,0.4133,0.4103,0.4104,0.4109,0.4162,0.4166,0.4171,0.4131,0.4132,0.4133,0.4161,0,0.3979,0.4008,0.401,0.4036,0.405,0.4048,0.4063,0.4073,0.4078,0.4091,0.4096,0.4111,0.4104,0.4109,0.4121,0.4128,0.4144,0.4126,0.4145,0.4146,0.4142,0.4176,0.4179,0.4206,0.4165,0.4166,0.4166,0,0.4012,0.4024,0.4052,0.4064,0.407,0.4083,0.4097,0.411,0.4121,0.4124,0.4134,0.4134,0.4152,0.4141,0.4167,0.4154,0.4163,0.4167,0.4168,0.417,0.4157,0.4178,0.4214,0.4218,0.4172,0.4172,0.4171,0,0.4031,0.4055,0.4074,0.408,0.4095,0.4104,0.4111,0.4121,0.4131,0.4144,0.415,0.4165,0.4173,0.4185,0.4189,0.4181,0.4215,0.4204,0.4218,0.4218,0.4225,0.4224,0.4263,0.423,0.423,0.423,0.423,0,0.4059,0.4077,0.4083,0.4095,0.4115,0.4118,0.4137,0.4143,0.4153,0.4167,0.4166,0.4179,0.4184,0.4198,0.4202,0.4223,0.4226,0.423,0.423,0.423,0.4229,0.4235,0.4233,0.4231,0.4231,0.4231,0.4231,0,0.4084,0.4089,0.411,0.4122,0.4126,0.4139,0.415,0.4162,0.4167,0.4185,0.4189,0.4197,0.4214,0.4219,0.424,0.4242,0.4266,0.4266,0.4262,0.4262,0.4276,0.4275,0.432,0.4326,0.429,0.429,0.429,0,0.4101,0.4114,0.4128,0.4137,0.4144,0.4158,0.4168,0.4172,0.4182,0.4196,0.4207,0.4224,0.4237,0.4264,0.4272,0.4288,0.4287,0.4302,0.429,0.4289,0.4288,0.4287,0.4288,0.4304,0.4305,0.4305,0.4305,0,0.4132,0.4134,0.4147,0.4162,0.4173,0.4185,0.4196,0.4204,0.421,0.4221,0.4238,0.4249,0.427,0.4286,0.4303,0.431,0.4309,0.4309,0.4313,0.4312,0.431,0.4312,0.4269,0.4308,0.4308,0.4307,0.4307,0.4307,0.4153,0.4165,0.4176,0.4192,0.4201,0.4212,0.4224,0.4231,0.4245,0.4262,0.4264,0.4282,0.4295,0.4316,0.4325,0.434,0.4336,0.4341,0.4343,0.4344,0.4345,0.4308,0.4343,0.4343,0.4342,0.4342,0.4342,0,0.4184,0.4191,0.4205,0.4221,0.4233,0.4231,0.4244,0.4255,0.4271,0.4282,0.4296,0.4316,0.4332,0.4342,0.4359,0.4369,0.4369,0.4373,0.4372,0.4374,0.4348,0.4343,0.4373,0.4373,0.4373,0.4373,0.4373,0.4373,0.4201,0.4221,0.4225,0.425,0.4257,0.4275,0.4283,0.4293,0.4302,0.4325,0.4338,0.4344,0.4356,0.4373,0.4389,0.4391,0.4397,0.4402,0.4404,0.4379,0.4376,0.4373,0.4368,0.4403,0.4403,0.4429,0.443,0.443]},{"header":{"parameterUnit":"m.s-1","parameterCategory":1,"la1":30.2991,"la2":30.254,"lo1":-89.0895,"lo2":-89.0444,"dy":0.0017,"dx":0.0017,"nx":28,"ny":28,"refTime":"2023-07-26T03:00:00:Z","depth":0,"parameterNumber":3,"parameterNumberName":"V-component_of_WINDS"},"data":[0,0,0,0,0,0,0,0,0,0,0,0,0,0,0,0,0,0,0,0,0,0,0,0,0,0,0,0,0,0,0,0,0,0,0,0,0,0,0,0,0,0,0,0,0,0,0,0,0,0,0,0,0,0,0,0,0,0,-1.2524,-1.2524,0,-1.2584,-1.2585,-1.2585,-1.2595,-1.2594,-1.2594,-1.2593,-1.2655,-1.2657,-1.266,0,0,0,0,0,0,0,0,0,0,0,0,0,-1.2418,-1.242,-1.2524,-1.2524,-1.2525,-1.2584,-1.2585,-1.2585,-1.2595,-1.2594,-1.2594,-1.2593,-1.2655,-1.2657,-1.266,0,0,0,0,0,0,0,0,0,0,0,0,0,-1.247,-1.2421,-1.2523,-1.2537,-1.2539,-1.2584,-1.2585,-1.2586,-1.2595,-1.2594,-1.2594,-1.2593,-1.2654,-1.2657,-1.266,-1.2696,0,0,-1.267,-1.2671,0,0,0,0,0,0,0,0,-1.2467,-1.2474,-1.2534,-1.2536,-1.2538,-1.2581,-1.257,-1.2623,-1.2595,-1.2574,-1.2593,-1.2592,-1.2631,-1.2636,-1.2649,-1.2699,-1.2701,-1.267,-1.2672,-1.2673,-1.2674,0,0,0,0,0,0,0,-1.2463,-1.2471,-1.2547,-1.2535,-1.2538,-1.2541,-1.2547,-1.258,-1.2606,-1.2576,-1.2576,-1.2583,-1.2632,-1.2646,-1.2651,-1.2702,-1.267,-1.2673,-1.2675,-1.2676,-1.2786,-1.2787,0,0,0,0,0,0,-1.2457,-1.2468,-1.2545,-1.2549,-1.25,-1.2543,-1.255,-1.2568,-1.2606,-1.2611,-1.2584,-1.2584,-1.2641,-1.2647,-1.2653,-1.2699,-1.2673,-1.2676,-1.2678,-1.2785,-1.2787,-1.2788,0,0,0,0,0,0,-1.2455,-1.2464,-1.2543,-1.2509,-1.2519,-1.2546,-1.2566,-1.257,-1.2584,-1.2612,-1.2617,-1.2594,-1.2641,-1.2649,-1.2686,-1.2701,-1.2678,-1.2681,-1.2784,-1.2786,-1.2787,-1.279,0,0,0,0,0,0,-1.2452,-1.2463,-1.2476,-1.2509,-1.2521,-1.2574,-1.2567,-1.2571,-1.2589,-1.2589,-1.2622,-1.2627,-1.2641,-1.2681,-1.2689,-1.2705,-1.2683,-1.2783,-1.2785,-1.2787,-1.2789,-1.2792,-1.2794,0,0,0,0,0,-1.2448,-1.2474,-1.2477,-1.2486,-1.2538,-1.2575,-1.2582,-1.2597,-1.259,-1.2605,-1.2623,-1.2626,-1.2698,-1.2684,-1.2694,-1.2711,-1.2782,-1.2784,-1.2786,-1.2788,-1.2791,-1.2794,0,0,0,0,0,0,-1.2442,-1.2479,-1.2482,-1.252,-1.2544,-1.2576,-1.2595,-1.26,-1.2626,-1.2625,-1.2643,-1.265,-1.2687,-1.2703,-1.2687,-1.2749,-1.274,-1.2744,-1.2737,-1.2741,-1.2743,-1.2739,-1.2686,0,0,0,0,0,-1.2445,-1.2472,-1.2502,-1.2533,-1.2545,-1.2568,-1.2584,-1.2594,-1.262,-1.263,-1.2652,-1.2677,-1.2706,-1.2724,-1.2752,-1.2791,-1.2799,-1.2808,-1.281,-1.2812,-1.2816,-1.284,-1.2845,-1.2795,-1.2795,-1.2795,0,0,-1.2452,-1.2475,-1.2491,-1.2532,-1.2552,-1.258,-1.2576,-1.2605,-1.2627,-1.2635,-1.2672,-1.2688,-1.2718,-1.2757,-1.2775,-1.2771,-1.2832,-1.2815,-1.2817,-1.2819,-1.2843,-1.2848,-1.2852,-1.2797,-1.2796,-1.2796,0,0,-1.2479,-1.2498,-1.2527,-1.2547,-1.2578,-1.2594,-1.26,-1.2632,-1.2644,-1.2681,-1.2689,-1.2714,-1.2762,-1.2784,-1.2801,-1.2838,-1.2843,-1.2847,-1.2861,-1.2884,-1.2888,-1.2892,-1.2907,-1.2911,-1.285,-1.285,-1.285,0,-1.2483,-1.2525,-1.2541,-1.257,-1.2589,-1.2598,-1.2628,-1.2647,-1.2685,-1.2699,-1.2694,-1.2756,-1.2776,-1.2822,-1.2831,-1.2844,-1.2854,-1.2843,-1.2886,-1.289,-1.2893,-1.2908,-1.2913,-1.2851,-1.2851,-1.2851,-1.285,0,-1.253,-1.2559,-1.2579,-1.2616,-1.2637,-1.2666,-1.2687,-1.2707,-1.2715,-1.2731,-1.277,-1.2795,-1.2829,-1.284,-1.2848,-1.2887,-1.2884,-1.2882,-1.2874,-1.2898,-1.2912,-1.2918,-1.2851,-1.2851,-1.2851,-1.2851,0,0,-1.2554,-1.2601,-1.2608,-1.2626,-1.2662,-1.2685,-1.2716,-1.2749,-1.2766,-1.2793,-1.282,-1.2861,-1.2861,-1.288,-1.2891,-1.2911,-1.2941,-1.2907,-1.2908,-1.2914,-1.2988,-1.299,-1.2996,-1.2944,-1.2945,-1.2946,-1.2986,0,-1.2586,-1.2641,-1.2657,-1.2703,-1.2732,-1.2742,-1.2769,-1.2794,-1.281,-1.2837,-1.2855,-1.2885,-1.2881,-1.2893,-1.2913,-1.2933,-1.2957,-1.293,-1.2971,-1.2972,-1.2964,-1.3003,-1.3005,-1.3042,-1.2992,-1.2993,-1.2993,0,-1.2631,-1.2659,-1.2709,-1.2743,-1.2755,-1.2779,-1.2812,-1.2837,-1.2867,-1.2877,-1.29,-1.2909,-1.2943,-1.2932,-1.2979,-1.2961,-1.2978,-1.2991,-1.2993,-1.2998,-1.2985,-1.3011,-1.3054,-1.306,-1.3002,-1.3001,-1.3,0,-1.2646,-1.2696,-1.2733,-1.2748,-1.2788,-1.2805,-1.2822,-1.2851,-1.2871,-1.29,-1.2913,-1.2945,-1.2963,-1.2989,-1.3007,-1.2997,-1.3054,-1.3043,-1.3064,-1.3064,-1.3076,-1.3075,-1.3124,-1.3085,-1.3085,-1.3085,-1.3085,0,-1.268,-1.2711,-1.274,-1.2763,-1.2798,-1.2816,-1.285,-1.2868,-1.2894,-1.2921,-1.2931,-1.2957,-1.2979,-1.3007,-1.3022,-1.306,-1.3067,-1.3078,-1.3081,-1.3078,-1.3077,-1.309,-1.3088,-1.3087,-1.3086,-1.3086,-1.3086,0,-1.2703,-1.2724,-1.2765,-1.28,-1.2809,-1.2834,-1.2864,-1.2887,-1.2904,-1.2939,-1.2948,-1.2975,-1.3009,-1.303,-1.3073,-1.3083,-1.3125,-1.3127,-1.3116,-1.3118,-1.3138,-1.3136,-1.3198,-1.3207,-1.3161,-1.3161,-1.3162,0,-1.2724,-1.2748,-1.2786,-1.2805,-1.2823,-1.2854,-1.2875,-1.2894,-1.2915,-1.2952,-1.2971,-1.3006,-1.3035,-1.309,-1.3114,-1.3147,-1.3151,-1.317,-1.3156,-1.3152,-1.3153,-1.3152,-1.3156,-1.3173,-1.3173,-1.3174,-1.3174,0,-1.2761,-1.277,-1.28,-1.2834,-1.2859,-1.2886,-1.2913,-1.2928,-1.2953,-1.2976,-1.3012,-1.3035,-1.308,-1.3115,-1.3151,-1.317,-1.3177,-1.3178,-1.3185,-1.3182,-1.3175,-1.3181,-1.3124,-1.3177,-1.3176,-1.3176,-1.3176,-1.3176,-1.2785,-1.2807,-1.2838,-1.2871,-1.2894,-1.292,-1.2944,-1.2965,-1.2995,-1.3033,-1.3043,-1.3081,-1.3111,-1.3161,-1.318,-1.3211,-1.3208,-1.3217,-1.322,-1.3223,-1.3224,-1.3169,-1.3217,-1.3217,-1.3217,-1.3217,-1.3217,0,-1.2823,-1.2844,-1.2874,-1.2913,-1.2939,-1.2943,-1.2974,-1.2997,-1.303,-1.3058,-1.3087,-1.3129,-1.3164,-1.3191,-1.3227,-1.3246,-1.325,-1.3255,-1.3255,-1.3259,-1.3224,-1.3215,-1.3251,-1.3251,-1.3251,-1.3251,-1.3251,-1.3251,-1.2846,-1.2885,-1.2899,-1.295,-1.297,-1.3008,-1.3026,-1.305,-1.3073,-1.3119,-1.3149,-1.3166,-1.3194,-1.3233,-1.3266,-1.3273,-1.3286,-1.3291,-1.3299,-1.3265,-1.3261,-1.3258,-1.325,-1.3293,-1.3293,-1.3332,-1.3332,-1.3333]}]]